South Haven, MI

5:14 PM EST on February 23, 2017 (GMT -0500)
South Haven

Weather History for KLWA - February, 2013

Change the Weather History Date:

Sunday, February 10, 2013

  Actual Average (KBEH) Record (KBEH)
Temperature  
Mean Temperature 36 °F -  
Max Temperature 46 °F 32 °F 61 °F (2009)
Min Temperature 28 °F 18 °F -8 °F (1975)
Degree Days  
Heating Degree Days 30    
Moisture  
Dew Point 29 °F    
Average Humidity 78    
Maximum Humidity 96    
Minimum Humidity 65    
Precipitation  
Precipitation 0.00 in - - ()
Sea Level Pressure  
Sea Level Pressure 29.86 in    
Wind  
Wind Speed 8 mph (SE)    
Max Wind Speed 18 mph    
Max Gust Speed 28 mph    
Visibility 9 miles    
Events Rain    
Averages and records for this station are not official NWS values.
T = Trace of Precipitation, MM = Missing Value Source: NWS Daily Summary

Daily Weather History Graph

Daily Weather History Graph

Search for Another Location

Airport or City:

Trip Planner

Search our weather history database for the weather conditions in past years. The results will help you decide how hot, cold, wet, or windy it might be!

Date:

Astronomy

Feb. 10, 2013 Rise Set
Actual Time 7:47 AM EST 6:11 PM EST
Civil Twilight 7:18 AM EST 6:40 PM EST
Nautical Twilight 6:45 AM EST 7:13 PM EST
Astronomical Twilight 6:13 AM EST 7:46 PM EST
Moon 7:35 AM EST (2/10) 7:03 PM EST (2/10)
Length of Visible Light 11h 21m
Length of Day
10h 23m
New Moon, 0% of the Moon is Illuminated
Feb 10
New Moon
Feb 17
First Quarter
Feb 25
Full
Mar 4
Last Quarter
Mar 11
New

Hourly Weather History & Observations

Time (EST) Temp. Windchill Dew Point Humidity Pressure Visibility Wind Dir Wind Speed Gust Speed Precip Events Conditions
12:15 AM 28.9 °F 21.1 °F 21.0 °F 72% 30.14 in 10.0 mi SE 8.1 mph - N/A   Clear
12:34 AM 28.4 °F 20.4 °F 20.8 °F 73% 30.14 in 10.0 mi SE 8.1 mph - N/A   Clear
12:55 AM 29.1 °F 22.1 °F 20.7 °F 71% 30.13 in 10.0 mi SSE 6.9 mph - N/A   Clear
1:15 AM 29.7 °F 22.0 °F 20.3 °F 68% 30.12 in 10.0 mi SSE 8.1 mph - N/A   Clear
1:35 AM 29.8 °F 23.0 °F 20.1 °F 67% 30.12 in 10.0 mi SE 6.9 mph - N/A   Clear
1:55 AM 30.0 °F 24.1 °F 19.9 °F 66% 30.11 in 10.0 mi SSE 5.8 mph - N/A   Clear
2:15 AM 30.2 °F 25.4 °F 19.8 °F 65% 30.11 in 10.0 mi SSE 4.6 mph - N/A   Clear
2:35 AM 29.8 °F - 19.8 °F 66% 30.12 in 10.0 mi Calm Calm - N/A   Clear
2:54 AM 29.3 °F 25.6 °F 19.4 °F 67% 30.12 in 10.0 mi SSE 3.5 mph - N/A   Clear
3:15 AM 28.9 °F 25.2 °F 19.4 °F 68% 30.12 in 10.0 mi SE 3.5 mph - N/A   Clear
3:35 AM 28.4 °F 23.3 °F 19.4 °F 69% 30.11 in 10.0 mi SE 4.6 mph - N/A   Clear
3:55 AM 28.2 °F 24.4 °F 19.8 °F 71% 30.10 in 10.0 mi SSE 3.5 mph - N/A   Clear
4:15 AM 28.2 °F 23.1 °F 19.9 °F 71% 30.09 in 10.0 mi SSE 4.6 mph - N/A   Clear
4:35 AM 28.2 °F 22.0 °F 20.1 °F 72% 30.09 in 10.0 mi SSE 5.8 mph - N/A   Clear
4:55 AM 28.4 °F 21.2 °F 20.7 °F 73% 30.08 in 10.0 mi SSE 6.9 mph - N/A   Clear
5:15 AM 28.8 °F 21.7 °F 21.0 °F 73% 30.07 in 10.0 mi SSE 6.9 mph - N/A   Mostly Cloudy
5:34 AM 29.3 °F 22.3 °F 21.2 °F 72% 30.07 in 10.0 mi SSE 6.9 mph - N/A   Mostly Cloudy
5:55 AM 29.7 °F 24.7 °F 21.6 °F 72% 30.07 in 10.0 mi SSE 4.6 mph - N/A   Mostly Cloudy
6:15 AM 30.2 °F 23.4 °F 21.7 °F 71% 30.06 in 10.0 mi SSE 6.9 mph - N/A   Mostly Cloudy
6:35 AM 30.7 °F 27.3 °F 21.7 °F 69% 30.05 in 10.0 mi SE 3.5 mph - N/A   Scattered Clouds
6:55 AM 30.4 °F 25.6 °F 21.6 °F 70% 30.05 in 10.0 mi ESE 4.6 mph - N/A   Clear
7:14 AM 31.1 °F 25.4 °F 22.5 °F 70% 30.04 in 10.0 mi ESE 5.8 mph - N/A   Mostly Cloudy
7:35 AM 31.8 °F 25.4 °F 23.4 °F 71% 30.03 in 10.0 mi SE 6.9 mph - N/A   Overcast
7:55 AM 31.8 °F 25.4 °F 23.9 °F 73% 30.02 in 10.0 mi SE 6.9 mph - N/A   Overcast
8:15 AM 32.0 °F 27.5 °F 24.3 °F 73% 30.02 in 10.0 mi SSE 4.6 mph - N/A   Overcast
8:35 AM 32.4 °F 26.9 °F 25.2 °F 75% 30.01 in 10.0 mi SE 5.8 mph - N/A   Overcast
8:54 AM 32.9 °F 27.5 °F 25.5 °F 74% 29.99 in 10.0 mi SE 5.8 mph - N/A   Overcast
9:15 AM 33.1 °F 26.9 °F 26.1 °F 75% 29.99 in 10.0 mi SE 6.9 mph - N/A   Overcast
9:35 AM 33.1 °F 25.5 °F 26.1 °F 75% 29.98 in 10.0 mi SE 9.2 mph - N/A   Overcast
9:55 AM 33.4 °F 25.9 °F 26.2 °F 75% 29.98 in 10.0 mi SE 9.2 mph - N/A   Overcast
10:15 AM 34.0 °F 27.2 °F 26.6 °F 74% 29.98 in 10.0 mi SE 8.1 mph - N/A   Overcast
10:35 AM 34.3 °F 27.0 °F 26.6 °F 73% 29.97 in 10.0 mi SE 9.2 mph - N/A   Overcast
10:54 AM 34.7 °F 26.9 °F 27.1 °F 74% 29.97 in 10.0 mi SE 10.4 mph - N/A   Overcast
11:14 AM 34.9 °F 26.6 °F 27.0 °F 73% 29.95 in 10.0 mi SE 11.5 mph 16.1 mph N/A   Overcast
11:35 AM 35.6 °F 28.6 °F 27.0 °F 71% 29.94 in 10.0 mi SE 9.2 mph 18.4 mph N/A   Overcast
11:55 AM 36.7 °F 28.9 °F 26.8 °F 67% 29.92 in 10.0 mi SSE 11.5 mph 16.1 mph N/A   Overcast
12:15 PM 37.4 °F 29.8 °F 27.1 °F 66% 29.91 in 10.0 mi SSE 11.5 mph 17.3 mph N/A   Overcast
12:35 PM 37.6 °F 31.6 °F 27.5 °F 67% 29.89 in 10.0 mi SE 8.1 mph - N/A   Overcast
12:55 PM 37.4 °F 28.9 °F 28.0 °F 69% 29.85 in 10.0 mi ESE 13.8 mph 17.3 mph N/A   Overcast
1:15 PM 37.6 °F 30.0 °F 28.4 °F 69% 29.84 in 10.0 mi ESE 11.5 mph 16.1 mph N/A   Overcast
1:35 PM 37.9 °F 30.5 °F 29.1 °F 71% 29.82 in 10.0 mi SE 11.5 mph 18.4 mph N/A   Light Drizzle
1:54 PM 37.6 °F 30.5 °F 31.5 °F 79% 29.81 in 5.0 mi SE 10.4 mph - N/A Rain Light Rain
2:13 PM 37.9 °F 32.1 °F 32.2 °F 80% 29.79 in 7.0 mi SE 8.1 mph - N/A Rain Light Rain
2:34 PM 37.9 °F 30.9 °F 32.4 °F 80% 29.77 in 7.0 mi SE 10.4 mph - N/A Rain Rain
2:55 PM 38.5 °F 31.6 °F 32.9 °F 80% 29.76 in 10.0 mi SE 10.4 mph - N/A Rain Light Rain
3:15 PM 39.2 °F 32.5 °F 32.9 °F 78% 29.75 in 10.0 mi SSE 10.4 mph 18.4 mph N/A Rain Light Rain
3:35 PM 39.7 °F 32.7 °F 34.0 °F 80% 29.74 in 7.0 mi SE 11.5 mph - N/A Rain Light Rain
3:55 PM 40.1 °F 33.2 °F 34.7 °F 81% 29.71 in 7.0 mi SE 11.5 mph 17.3 mph N/A Rain Light Rain
4:14 PM 39.6 °F 31.7 °F 35.1 °F 84% 29.69 in 3.0 mi SE 13.8 mph 19.6 mph N/A Rain Rain
4:35 PM 39.6 °F 31.0 °F 36.1 °F 88% 29.66 in 5.0 mi SE 16.1 mph 24.2 mph N/A Rain Light Rain
4:54 PM 40.1 °F 31.0 °F 36.5 °F 87% 29.65 in 7.0 mi SE 18.4 mph 27.6 mph N/A Rain Light Rain
5:15 PM 40.5 °F 32.8 °F 36.5 °F 86% 29.65 in 10.0 mi SE 13.8 mph 25.3 mph N/A   Overcast
5:35 PM 41.0 °F 33.9 °F 36.7 °F 85% 29.64 in 10.0 mi SE 12.7 mph 19.6 mph N/A   Overcast
5:55 PM 41.4 °F 34.0 °F 36.9 °F 84% 29.63 in 10.0 mi SE 13.8 mph 21.9 mph N/A   Overcast
6:15 PM 41.5 °F 33.8 °F 37.0 °F 84% 29.63 in 10.0 mi SSE 15.0 mph 25.3 mph N/A   Overcast
6:35 PM 41.0 °F 33.5 °F 37.6 °F 88% 29.63 in 10.0 mi SSE 13.8 mph 21.9 mph N/A   Overcast
6:54 PM 40.6 °F 32.7 °F 38.1 °F 91% 29.62 in 7.0 mi SSE 15.0 mph 21.9 mph N/A   Overcast
7:15 PM 41.0 °F 33.5 °F 38.5 °F 91% 29.62 in 7.0 mi SSE 13.8 mph 24.2 mph N/A   Overcast
7:34 PM 40.6 °F 33.0 °F 38.7 °F 93% 29.62 in 4.0 mi SSE 13.8 mph 21.9 mph N/A   Overcast
7:54 PM 40.6 °F 34.3 °F 38.8 °F 93% 29.62 in 4.0 mi SSE 10.4 mph 23.0 mph N/A   Drizzle
8:14 PM 40.5 °F 33.6 °F 38.8 °F 94% 29.62 in 3.0 mi SSE 11.5 mph 19.6 mph N/A Rain Light Rain
8:35 PM 40.1 °F 32.7 °F 38.7 °F 95% 29.61 in 4.0 mi SSE 12.7 mph 18.4 mph N/A   Overcast
8:55 PM 40.3 °F 33.0 °F 38.8 °F 95% 29.60 in 7.0 mi SSE 12.7 mph 17.3 mph N/A   Overcast
9:15 PM 40.5 °F 34.6 °F 39.0 °F 95% 29.60 in 7.0 mi SSE 9.2 mph - N/A   Overcast
9:35 PM 41.0 °F 34.7 °F 39.4 °F 94% 29.59 in 7.0 mi South 10.4 mph - N/A   Overcast
9:55 PM 41.2 °F 35.5 °F 40.1 °F 96% 29.59 in 7.0 mi SSE 9.2 mph - N/A   Overcast
10:15 PM 42.1 °F 36.6 °F 40.8 °F 95% 29.57 in 7.0 mi SSE 9.2 mph - N/A   Overcast
10:34 PM 42.6 °F 37.2 °F 41.0 °F 94% 29.57 in 7.0 mi SSE 9.2 mph - N/A   Overcast
10:55 PM 43.0 °F 37.7 °F 41.5 °F 95% 29.55 in 10.0 mi SSE 9.2 mph - N/A   Overcast
11:14 PM 43.3 °F 38.1 °F 41.9 °F 95% 29.54 in 10.0 mi SSE 9.2 mph - N/A   Overcast
11:35 PM 43.5 °F 38.3 °F 42.1 °F 95% 29.54 in 10.0 mi South 9.2 mph - N/A   Overcast
11:55 PM 43.3 °F 37.7 °F 41.9 °F 95% 29.54 in 10.0 mi South 10.4 mph - N/A   Overcast